FW5295 Weather Reports


Display with metric or nautical units.
time (UTC)temp
F
wind
direction
speed
MPH
gust
MPH
rain 1hr
in
rain 24hr
in
rain mn
in
humidity
%
barometer
mb
20230130040501 16 300 3.0 6.0 0.00 0.00 0.00 80 1025.5
20230130040013 16 320 2.0 6.0 0.00 0.00 0.00 80 1025.4
20230130035459 16 306 4.0 7.0 0.00 0.00 0.00 80 1025.4
20230130035006 16 313 3.0 7.0 0.00 0.00 0.00 79 1025.3
20230130034513 16 301 1.0 6.0 0.00 0.00 0.00 79 1025.3
20230130034231 16 312 3.0 6.0 0.00 0.00 0.00 79 1025.2
20230130033500 16 317 4.0 6.0 0.00 0.00 0.00 79 1025.3
20230130033231 16 305 3.0 7.0 0.00 0.00 0.00 79 1025.3
20230130032459 16 301 4.0 7.0 0.00 0.00 0.00 79 1025.2
20230130032229 16 296 2.0 7.0 0.00 0.00 0.00 79 1025.1
20230130031459 16 300 3.0 9.0 0.00 0.00 0.00 79 1025.3
20230130031000 16 317 4.0 9.0 0.00 0.00 0.00 79 1025.0
20230130030501 16 311 4.0 9.0 0.00 0.00 0.00 79 1025.1
20230130025959 16 301 2.0 9.0 0.00 0.00 0.00 79 1025.0
20230130025501 16 334 3.0 8.0 0.00 0.00 0.00 79 1024.8
20230130024959 16 341 4.0 8.0 0.00 0.00 0.00 79 1025.1
20230130024500 16 300 3.0 8.0 0.00 0.00 0.00 80 1025.1
20230130024002 16 303 2.0 8.0 0.00 0.00 0.00 80 1025.1
20230130023459 16 335 3.0 8.0 0.00 0.00 0.00 80 1025.2
20230130023231 16 343 3.0 8.0 0.00 0.00 0.00 80 1024.8
20230130022500 16 318 2.0 6.0 0.00 0.00 0.00 80 1025.2
20230130022004 16 305 3.0 7.0 0.00 0.00 0.00 79 1025.1
20230130021458 16 322 3.0 6.0 0.00 0.00 0.00 80 1025.2
20230130021001 17 336 4.0 6.0 0.00 0.00 0.00 80 1025.3
20230130020459 17 333 2.0 6.0 0.00 0.00 0.00 80 1025.6
20230130020001 17 303 2.0 6.0 0.00 0.00 0.00 80 1025.6
20230130015502 17 309 2.0 6.0 0.00 0.00 0.00 80 1025.4
20230130015000 17 307 1.0 6.0 0.00 0.00 0.00 80 1025.3
20230130014500 17 308 1.0 6.0 0.00 0.00 0.00 79 1025.3
20230130013959 17 310 1.0 6.0 0.00 0.00 0.00 80 1025.2
20230130013459 17 310 3.0 6.0 0.00 0.00 0.00 79 1025.1
20230130013013 17 305 2.0 6.0 0.00 0.00 0.00 81 1025.1
20230130012501 17 311 2.0 3.0 0.00 0.00 0.00 81 1025.4
20230130012242 17 328 1.0 3.0 0.00 0.00 0.00 81 1025.2
20230130011500 17 324 2.0 3.0 0.00 0.00 0.00 81 1025.2
20230130011000 17 291 1.0 3.0 0.00 0.00 0.00 80 1025.3
20230130010459 17 352 2.0 4.0 0.00 0.00 0.00 80 1025.0
20230130010025 17 341 4.0 4.0 0.00 0.00 0.00 80 1025.2
20230130005959 17 342 2.0 4.0 0.00 0.00 0.00 80 1025.2
20230130004959 17 328 1.0 4.0 0.00 0.00 0.00 80 1025.1
20230130004744 17 338 1.0 4.0 0.00 0.00 0.00 80 1025.1
20230130003959 17 307 1.0 3.0 0.00 0.00 0.00 79 1024.9
20230130003500 17 316 2.0 3.0 0.00 0.00 0.00 79 1025.2
20230130003013 17 296 1.0 3.0 0.00 0.00 0.00 79 1025.0
20230130002458 17 309 1.0 4.0 0.00 0.00 0.00 80 1024.9
20230130002001 17 325 3.0 7.0 0.00 0.00 0.00 79 1024.9
20230130001730 18 310 3.0 7.0 0.00 0.00 0.00 79 1025.0
20230130001014 18 336 4.0 6.0 0.00 0.00 0.00 79 1025.2
20230130000500 18 349 2.0 4.0 0.00 0.00 0.00 79 1025.3
20230129235959 18 293 2.0 7.0 0.00 0.00 0.00 79 1024.8
20230129235502 18 285 1.0 7.0 0.00 0.00 0.00 79 1025.0
20230129235004 18 299 1.0 8.0 0.00 0.00 0.00 80 1024.9
20230129234500 18 301 2.0 8.0 0.00 0.00 0.00 80 1024.8
20230129234239 18 322 2.0 7.0 0.00 0.00 0.00 80 1024.9
20230129233500 18 299 2.0 8.0 0.00 0.00 0.00 80 1024.7
20230129233000 18 313 2.0 8.0 0.00 0.00 0.00 79 1024.6
20230129232506 19 303 2.0 6.0 0.00 0.00 0.00 81 1024.4
20230129232501 19 308 3.0 6.0 0.00 0.00 0.00 80 1024.5
20230129231501 19 324 4.0 4.0 0.00 0.00 0.00 81 1024.1
20230129231000 19 357 2.0 4.0 0.00 0.00 0.00 81 1024.2
20230129230458 19 321 4.0 4.0 0.00 0.00 0.00 81 1024.1
20230129225959 19 305 2.0 4.0 0.00 0.00 0.00 81 1024.1
20230129225459 19 313 1.0 4.0 0.00 0.00 0.00 81 1024.0
20230129225002 19 308 2.0 4.0 0.00 0.00 0.00 81 1023.9
20230129224459 19 300 1.0 6.0 0.00 0.00 0.00 81 1023.9
20230129223959 19 303 2.0 6.0 0.00 0.00 0.00 81 1023.6
20230129223500 19 308 3.0 7.0 0.00 0.00 0.00 81 1023.7
20230129223238 19 313 2.0 7.0 0.00 0.00 0.00 81 1023.6
20230129222502 19 304 1.0 6.0 0.00 0.00 0.00 81 1023.7
20230129222007 19 284 1.0 6.0 0.00 0.00 0.00 81 1023.7
20230129221504 20 303 2.0 6.0 0.00 0.00 0.00 81 1023.6
20230129221230 20 295 4.0 6.0 0.00 0.00 0.00 81 1023.4
20230129220500 20 307 3.0 4.0 0.00 0.00 0.00 80 1023.7
20230129220004 20 301 2.0 7.0 0.00 0.00 0.00 81 1023.4
20230129215511 20 300 1.0 7.0 0.00 0.00 0.00 80 1023.4
20230129215008 20 307 2.0 6.0 0.00 0.00 0.00 79 1023.5
20230129214506 21 318 3.0 6.0 0.00 0.00 0.00 79 1023.5
20230129213959 21 305 2.0 6.0 0.00 0.00 0.00 78 1023.4
20230129213459 22 280 2.0 6.0 0.00 0.00 0.00 78 1023.6
20230129213012 22 322 4.0 6.0 0.00 0.00 0.00 78 1023.4
20230129212500 22 346 2.0 6.0 0.00 0.00 0.00 77 1023.7
20230129211959 22 320 2.0 7.0 0.00 0.00 0.00 77 1023.4
20230129211500 22 297 3.0 8.0 0.00 0.00 0.00 78 1023.4
20230129210959 22 309 1.0 8.0 0.00 0.00 0.00 77 1023.5
20230129210459 22 300 2.0 6.0 0.00 0.00 0.00 77 1023.5
20230129210232 22 342 2.0 7.0 0.00 0.00 0.00 77 1023.2
20230129205500 22 298 3.0 7.0 0.00 0.00 0.00 76 1023.1
20230129204959 22 305 3.0 4.0 0.00 0.00 0.00 76 1023.1
20230129204509 22 304 1.0 4.0 0.00 0.00 0.00 77 1023.3
20230129203959 22 300 3.0 4.0 0.00 0.00 0.00 76 1023.4
20230129203459 22 307 3.0 6.0 0.00 0.00 0.00 77 1023.3
20230129202959 22 328 4.0 7.0 0.00 0.00 0.00 76 1023.1
20230129202501 23 293 2.0 7.0 0.00 0.00 0.00 77 1023.1
20230129202000 23 288 3.0 7.0 0.00 0.00 0.00 76 1023.0
20230129201731 23 343 3.0 7.0 0.00 0.00 0.00 76 1022.9
20230129201000 23 331 3.0 7.0 0.00 0.00 0.00 76 1022.6
20230129200501 23 310 2.0 7.0 0.00 0.00 0.00 77 1022.5
20230129195958 23 299 1.0 8.0 0.00 0.00 0.00 77 1022.5
20230129195502 23 288 2.0 8.0 0.00 0.00 0.00 77 1022.3
20230129194959 23 324 4.0 8.0 0.00 0.00 0.00 75 1022.4
20230129194459 23 300 2.0 6.0 0.00 0.00 0.00 76 1022.3
20230129194005 23 282 2.0 10.0 0.00 0.00 0.00 76 1022.3
20230129193459 23 351 4.0 10.0 0.00 0.00 0.00 75 1022.2
20230129193004 23 286 4.0 7.0 0.00 0.00 0.00 76 1022.4
20230129192513 23 335 2.0 9.0 0.00 0.00 0.00 77 1022.6
20230129192002 23 337 2.0 9.0 0.00 0.00 0.00 76 1022.5
20230129191502 23 2 4.0 11.0 0.00 0.00 0.00 76 1022.9
20230129191000 23 327 5.0 11.0 0.00 0.00 0.00 76 1022.7
20230129190500 23 315 4.0 8.0 0.00 0.00 0.00 77 1022.5
20230129190244 23 292 5.0 7.0 0.00 0.00 0.00 78 1022.6
20230129185730 23 275 2.0 8.0 0.00 0.00 0.00 77 1022.7
20230129185000 23 297 2.0 8.0 0.00 0.00 0.00 78 1022.9
20230129184459 22 322 4.0 8.0 0.00 0.00 0.00 78 1022.8
20230129184230 23 290 4.0 8.0 0.00 0.00 0.00 77 1022.7
20230129183500 23 261 4.0 7.0 0.00 0.00 0.00 78 1022.8
20230129182959 23 257 4.0 8.0 0.00 0.00 0.00 78 1022.8
20230129182458 22 274 2.0 9.0 0.00 0.00 0.00 79 1022.7
20230129182001 22 307 5.0 9.0 0.00 0.00 0.00 79 1022.5
20230129181506 22 284 4.0 10.0 0.00 0.00 0.00 79 1022.4
20230129181000 22 345 7.0 10.0 0.00 0.00 0.00 79 1022.5
20230129180500 22 335 4.0 8.0 0.00 0.00 0.00 80 1022.3
20230129180230 22 327 4.0 10.0 0.00 0.00 0.00 79 1022.1
20230129175459 21 346 3.0 10.0 0.00 0.00 0.00 81 1022.2
20230129174959 21 339 6.0 10.0 0.00 0.00 0.00 80 1022.4
20230129174504 21 344 5.0 13.0 0.00 0.00 0.00 80 1022.7
20230129173959 21 340 6.0 13.0 0.00 0.00 0.00 81 1022.7
20230129173459 21 303 6.0 10.0 0.00 0.00 0.00 80 1022.8
20230129172958 21 7 4.0 13.0 0.00 0.00 0.00 81 1023.1
20230129172500 21 279 5.0 13.0 0.00 0.00 0.00 82 1022.8
20230129172230 20 341 3.0 9.0 0.00 0.00 0.00 81 1023.3
20230129171504 20 353 5.0 15.0 0.00 0.00 0.00 82 1023.2
20230129171459 21 0 6.0 9.0 0.00 0.00 0.00 82 1023.1
20230129170459 19 313 5.0 15.0 0.00 0.00 0.00 83 1023.3
20230129170002 19 332 6.0 10.0 0.00 0.00 0.00 82 1023.2
20230129165459 19 329 4.0 15.0 0.00 0.00 0.00 83 1023.4
20230129165231 19 294 5.0 15.0 0.00 0.00 0.00 84 1023.2
20230129164459 19 331 3.0 10.0 0.00 0.00 0.00 84 1023.1
20230129164001 19 346 4.0 11.0 0.00 0.00 0.00 84 1023.1
20230129163459 19 312 4.0 11.0 0.00 0.00 0.00 85 1023.1
20230129163007 19 335 4.0 9.0 0.00 0.00 0.00 85 1023.5
20230129162458 19 324 4.0 13.0 0.00 0.00 0.00 85 1023.0
20230129162000 19 325 5.0 14.0 0.00 0.00 0.00 84 1023.1
20230129161508 19 337 4.0 14.0 0.00 0.00 0.00 85 1023.2
20230129160959 19 285 6.0 9.0 0.00 0.00 0.00 87 1023.1
20230129160459 19 354 4.0 9.0 0.00 0.00 0.00 87 1022.8
20230129160000 18 332 6.0 9.0 0.00 0.00 0.00 88 1022.5
20230129155730 18 308 3.0 9.0 0.00 0.00 0.00 88 1022.7
20230129154959 18 302 4.0 9.0 0.00 0.00 0.00 88 1022.4
20230129154458 18 295 3.0 9.0 0.00 0.00 0.00 89 1022.0
20230129154000 17 7 6.0 11.0 0.00 0.00 0.00 88 1022.4
20230129153459 17 9 5.0 15.0 0.00 0.00 0.00 89 1022.2
20230129152959 17 11 5.0 15.0 0.00 0.00 0.00 89 1022.3
20230129152459 17 6 5.0 15.0 0.00 0.00 0.00 89 1022.2
20230129152005 17 330 7.0 13.0 0.00 0.00 0.00 89 1022.5
20230129151959 17 331 8.0 15.0 0.00 0.00 0.00 89 1022.5
20230129151004 18 347 8.0 9.0 0.00 0.00 0.00 91 1022.7
20230129150459 17 278 3.0 15.0 0.00 0.00 0.00 90 1022.5
20230129150017 17 307 4.0 10.0 0.00 0.00 0.00 91 1022.3
20230129145959 17 282 3.0 15.0 0.00 0.00 0.00 91 1022.5
20230129145001 17 42 5.0 10.0 0.00 0.00 0.00 91 1022.1
20230129144459 17 14 4.0 10.0 0.00 0.00 0.00 91 1022.1
20230129143959 17 285 3.0 10.0 0.00 0.00 0.00 91 1022.0
20230129143500 17 350 4.0 11.0 0.00 0.00 0.00 91 1021.9
20230129143013 17 301 4.0 13.0 0.00 0.00 0.00 92 1021.7
20230129143000 17 328 2.0 13.0 0.00 0.00 0.00 91 1021.9
20230129142001 17 312 5.0 6.0 0.00 0.00 0.00 92 1021.4
20230129141134 17 285 5.0 8.0 0.00 0.00 0.00 92 1021.5
20230129140820 17 307 4.0 15.0 0.00 0.00 0.00 92 1021.5
20230129140049 17 290 6.0 15.0 0.00 0.00 0.00 92 1021.4
20230129135554 17 330 5.0 14.0 0.00 0.00 0.00 92 1021.1
20230129135331 17 10 5.0 15.0 0.00 0.00 0.00 93 1020.9
20230129134547 17 327 4.0 15.0 0.00 0.00 0.00 93 1020.8
20230129134054 17 303 4.0 10.0 0.00 0.00 0.00 93 1020.7
20230129134049 17 306 5.0 9.0 0.00 0.00 0.00 93 1020.8
20230129133048 17 313 3.0 10.0 0.00 0.00 0.00 93 1020.4
20230129132548 17 333 4.0 10.0 0.00 0.00 0.00 93 1020.7
20230129132047 17 320 4.0 9.0 0.00 0.00 0.00 93 1020.4
20230129131547 17 312 4.0 10.0 0.00 0.00 0.00 94 1020.3
20230129131054 18 294 3.0 11.0 0.00 0.00 0.00 94 1020.4
20230129131047 18 312 5.0 11.0 0.00 0.00 0.00 94 1020.5
20230129130319 18 347 3.0 8.0 0.00 0.00 0.00 94 1020.2
20230129125547 18 342 5.0 10.0 0.00 0.00 0.00 94 1020.2
20230129125047 18 331 6.0 10.0 0.00 0.00 0.00 94 1020.1
20230129124549 18 306 4.0 10.0 0.00 0.00 0.00 94 1020.0
20230129124048 18 320 7.0 10.0 0.00 0.00 0.00 94 1019.7
20230129123551 18 315 4.0 10.0 0.00 0.00 0.00 94 1019.9
20230129123059 18 326 2.0 11.0 0.00 0.00 0.00 94 1019.7
20230129122548 18 359 5.0 11.0 0.00 0.00 0.00 94 1019.7
20230129122047 18 330 4.0 11.0 0.00 0.00 0.00 95 1019.8
20230129121548 18 309 2.0 10.0 0.00 0.00 0.00 95 1019.2
20230129121047 18 304 3.0 10.0 0.00 0.00 0.00 95 1019.4
20230129120547 18 307 6.0 9.0 0.00 0.00 0.00 95 1019.3
20230129120047 18 333 4.0 9.0 0.00 0.00 0.00 95 1019.1
20230129115549 18 348 4.0 10.0 0.00 0.00 0.00 95 1019.2
20230129115327 18 326 3.0 10.0 0.00 0.00 0.00 95 1019.1
20230129114818 18 295 3.0 8.0 0.00 0.00 0.00 95 1019.0
20230129114047 18 327 5.0 8.0 0.00 0.00 0.00 96 1018.6
20230129113547 19 310 5.0 10.0 0.00 0.00 0.00 96 1018.5
20230129113047 19 336 4.0 10.0 0.00 0.00 0.00 96 1018.5
20230129112551 19 311 5.0 8.0 0.00 0.00 0.00 96 1018.2
20230129112050 19 306 4.0 8.0 0.00 0.00 0.00 96 1018.2
20230129111547 19 301 4.0 10.0 0.00 0.00 0.00 96 1018.0
20230129111047 19 331 5.0 10.0 0.00 0.00 0.00 96 1018.0
20230129110548 19 296 4.0 9.0 0.00 0.00 0.00 96 1017.8
20230129110047 19 307 3.0 11.0 0.00 0.00 0.00 96 1017.7
20230129105551 19 311 3.0 11.0 0.00 0.00 0.00 96 1017.9
20230129105047 19 12 4.0 8.0 0.00 0.00 0.00 96 1017.9
20230129104601 19 311 6.0 11.0 0.00 0.00 0.00 97 1018.0
20230129104318 19 301 6.0 11.0 0.00 0.00 0.00 97 1018.1
20230129103550 19 335 3.0 7.0 0.00 0.00 0.00 96 1017.8
20230129103047 19 315 3.0 7.0 0.00 0.00 0.00 96 1017.8
20230129102554 19 317 5.0 7.0 0.00 0.00 0.00 96 1017.7
20230129102548 19 313 4.0 7.0 0.00 0.00 0.00 96 1017.8
20230129101547 19 349 5.0 7.0 0.00 0.00 0.00 96 1017.9
20230129101047 19 303 2.0 9.0 0.00 0.00 0.00 96 1017.7
20230129100547 19 293 4.0 10.0 0.00 0.00 0.00 96 1017.6
20230129100318 19 281 4.0 10.0 0.00 0.00 0.00 96 1017.3
20230129095547 19 25 4.0 10.0 0.00 0.00 0.00 96 1017.5
20230129095048 19 3 4.0 10.0 0.00 0.00 0.00 96 1017.4
20230129094548 19 22 3.0 10.0 0.00 0.00 0.00 96 1017.4
20230129094047 19 309 5.0 8.0 0.00 0.00 0.00 96 1017.3
20230129093548 19 308 4.0 9.0 0.00 0.00 0.00 96 1017.3
20230129093100 19 309 5.0 9.0 0.00 0.00 0.00 96 1017.2
20230129092548 20 6 2.0 7.0 0.00 0.00 0.00 96 1017.2
20230129092047 20 349 4.0 8.0 0.00 0.00 0.00 96 1017.1
20230129091819 20 353 5.0 8.0 0.00 0.00 0.00 96 1017.0
20230129091055 21 314 4.0 7.0 0.00 0.00 0.00 97 1016.6
20230129091048 20 313 4.0 8.0 0.00 0.00 0.00 96 1016.7
20230129090100 21 314 2.0 8.0 0.00 0.00 0.00 97 1016.7
20230129085548 21 348 2.0 7.0 0.00 0.00 0.00 97 1016.8
20230129085047 21 315 2.0 9.0 0.00 0.00 0.00 97 1016.4
20230129084548 20 313 4.0 9.0 0.00 0.00 0.00 97 1016.5
20230129084108 20 347 4.0 8.0 0.00 0.00 0.00 97 1016.7
20230129084100 20 356 3.0 8.0 0.00 0.00 0.00 97 1016.5
20230129083317 20 7 2.0 6.0 0.00 0.00 0.00 97 1016.7
20230129082547 20 296 3.0 7.0 0.00 0.00 0.00 97 1017.0
20230129082049 20 10 5.0 9.0 0.00 0.00 0.00 97 1016.8
20230129081548 20 353 2.0 9.0 0.00 0.00 0.00 97 1016.5
20230129081047 20 301 2.0 8.0 0.00 0.00 0.00 97 1016.7
20230129080549 20 327 4.0 8.0 0.00 0.00 0.00 97 1016.4
20230129080047 20 326 2.0 10.0 0.00 0.00 0.00 97 1016.6
20230129075549 20 18 1.0 10.0 0.00 0.00 0.00 97 1016.6
20230129075059 20 324 2.0 8.0 0.00 0.00 0.00 97 1016.6
20230129074819 20 305 2.0 8.0 0.00 0.00 0.00 97 1016.5
20230129074049 20 348 6.0 9.0 0.00 0.00 0.00 97 1016.6
20230129073819 20 7 3.0 9.0 0.00 0.00 0.00 97 1016.4
20230129073048 20 345 4.0 9.0 0.00 0.00 0.00 97 1016.4
20230129072548 20 349 3.0 9.0 0.00 0.00 0.00 97 1016.4
20230129072049 20 343 2.0 10.0 0.00 0.00 0.00 97 1016.3
20230129071548 20 359 3.0 10.0 0.00 0.00 0.00 97 1016.4
20230129071054 20 310 2.0 7.0 0.00 0.00 0.00 97 1016.2
20230129071048 20 324 3.0 7.0 0.00 0.00 0.00 97 1016.3
20230129070056 20 334 3.0 11.0 0.00 0.00 0.00 97 1016.3
20230129065817 21 308 4.0 11.0 0.00 0.00 0.00 97 1016.5
20230129065318 21 326 4.0 7.0 0.00 0.00 0.00 97 1016.3
20230129064548 21 340 3.0 6.0 0.00 0.00 0.00 97 1016.5
20230129064047 21 320 2.0 8.0 0.00 0.00 0.00 97 1016.3
20230129063823 21 332 3.0 9.0 0.00 0.00 0.00 97 1016.3
20230129063547 21 313 3.0 9.0 0.00 0.00 0.00 97 1016.3
20230129062547 21 2 3.0 8.0 0.00 0.00 0.00 97 1016.2
20230129062047 21 6 5.0 8.0 0.00 0.00 0.00 97 1016.3
20230129061547 21 352 4.0 8.0 0.00 0.00 0.00 97 1016.2
20230129061053 21 328 1.0 9.0 0.00 0.00 0.00 97 1016.3
20230129060553 22 300 5.0 9.0 0.00 0.00 0.00 97 1016.2
20230129060048 22 7 4.0 11.0 0.00 0.00 0.00 97 1015.9
20230129055548 22 326 4.0 11.0 0.00 0.00 0.00 97 1016.1
20230129055100 23 294 5.0 8.0 0.00 0.00 0.00 98 1016.0
20230129054821 23 343 3.0 7.0 0.00 0.00 0.00 98 1016.2
20230129054049 23 25 4.0 7.0 0.00 0.00 0.00 98 1016.1
20230129053548 23 333 3.0 7.0 0.00 0.00 0.00 98 1015.9
20230129053047 23 22 3.0 8.0 0.00 0.00 0.00 98 1015.8
20230129052554 23 351 2.0 8.0 0.00 0.00 0.00 98 1016.0
20230129052054 23 351 4.0 8.0 0.00 0.00 0.00 98 1016.1
20230129051547 23 324 5.0 8.0 0.00 0.00 0.00 98 1016.2
20230129051048 23 26 3.0 8.0 0.00 0.00 0.00 98 1016.1
20230129050550 23 358 4.0 10.0 0.00 0.00 0.00 98 1016.2
20230129050047 23 17 3.0 10.0 0.00 0.00 0.00 98 1016.2
20230129045548 24 335 4.0 8.0 0.00 0.00 0.00 98 1016.4
20230129045048 24 349 3.0 10.0 0.00 0.00 0.00 98 1016.5
20230129044547 24 30 4.0 10.0 0.00 0.00 0.00 98 1016.1
20230129044056 25 333 6.0 9.0 0.00 0.00 0.00 99 1016.1
20230129043556 25 300 3.0 6.0 0.00 0.00 0.00 99 1016.3
20230129043100 25 310 2.0 7.0 0.00 0.00 0.00 99 1016.1
20230129042549 25 63 2.0 8.0 0.00 0.00 0.00 99 1016.2
20230129042050 25 34 3.0 8.0 0.00 0.00 0.00 99 1016.2
20230129041547 25 340 1.0 9.0 0.00 0.00 0.00 99 1016.0
20230129041047 25 23 1.0 10.0 0.00 0.00 0.00 99 1015.8